Year,Month,Day,Hour,Minute,Value (Times are PST for temperature in C)
2010,06,23,00,00,15.10
2010,06,23,00,01,15.10
2010,06,23,00,02,15.10
2010,06,23,00,03,15.10
2010,06,23,00,04,15.10
2010,06,23,00,05,15.10
2010,06,23,00,06,15.10
2010,06,23,00,07,15.10
2010,06,23,00,08,15.00
2010,06,23,00,09,15.00
2010,06,23,00,10,14.90
2010,06,23,00,11,14.80
2010,06,23,00,12,14.80
2010,06,23,00,13,14.80
2010,06,23,00,14,14.80
2010,06,23,00,15,14.80
2010,06,23,00,16,14.70
2010,06,23,00,17,14.70
2010,06,23,00,18,14.60
2010,06,23,00,19,14.60
2010,06,23,00,20,14.60
2010,06,23,00,21,14.60
2010,06,23,00,22,14.60
2010,06,23,00,23,14.50
2010,06,23,00,24,14.50
2010,06,23,00,25,14.50
2010,06,23,00,26,14.50
2010,06,23,00,27,14.50
2010,06,23,00,28,14.50
2010,06,23,00,29,14.50
2010,06,23,00,30,14.50
2010,06,23,00,31,14.50
2010,06,23,00,32,14.50
2010,06,23,00,33,14.50
2010,06,23,00,34,14.50
2010,06,23,00,35,14.50
2010,06,23,00,36,14.50
2010,06,23,00,37,14.50
2010,06,23,00,38,14.50
2010,06,23,00,39,14.60
2010,06,23,00,40,14.60
2010,06,23,00,41,14.60
2010,06,23,00,42,14.60
2010,06,23,00,43,14.60
2010,06,23,00,44,14.60
2010,06,23,00,45,14.60
2010,06,23,00,46,14.60
2010,06,23,00,47,14.70
2010,06,23,00,48,14.70
2010,06,23,00,49,14.70
2010,06,23,00,50,14.70
2010,06,23,00,51,14.70
2010,06,23,00,52,14.70
2010,06,23,00,53,14.70
2010,06,23,00,54,14.70
2010,06,23,00,55,14.80
2010,06,23,00,56,14.80
2010,06,23,00,57,14.80
2010,06,23,00,58,14.80
2010,06,23,00,59,14.80
2010,06,23,01,00,14.80
2010,06,23,01,01,14.80
2010,06,23,01,02,14.80
2010,06,23,01,03,14.80
2010,06,23,01,04,14.90
2010,06,23,01,05,14.90
2010,06,23,01,06,14.90
2010,06,23,01,07,14.90
2010,06,23,01,08,14.90
2010,06,23,01,09,14.90
2010,06,23,01,10,14.90
2010,06,23,01,11,15.00
2010,06,23,01,12,15.00
2010,06,23,01,13,15.00
2010,06,23,01,14,15.00
2010,06,23,01,15,15.00
2010,06,23,01,16,15.10
2010,06,23,01,17,15.10
2010,06,23,01,18,15.10
2010,06,23,01,19,15.10
2010,06,23,01,20,15.10
2010,06,23,01,21,15.10
2010,06,23,01,22,15.10
2010,06,23,01,23,15.10
2010,06,23,01,24,15.10
2010,06,23,01,25,15.10
2010,06,23,01,26,15.10
2010,06,23,01,27,15.10
2010,06,23,01,28,15.10
2010,06,23,01,29,15.10
2010,06,23,01,30,15.10
2010,06,23,01,31,15.10
2010,06,23,01,32,15.10
2010,06,23,01,33,15.10
2010,06,23,01,34,15.10
2010,06,23,01,35,15.10
2010,06,23,01,36,15.10
2010,06,23,01,37,15.10
2010,06,23,01,38,15.10
2010,06,23,01,39,15.10
2010,06,23,01,40,15.10
2010,06,23,01,41,15.10
2010,06,23,01,42,15.10
2010,06,23,01,43,15.10
2010,06,23,01,44,15.10
2010,06,23,01,45,15.10
2010,06,23,01,46,15.10
2010,06,23,01,47,15.10
2010,06,23,01,48,15.10
2010,06,23,01,49,15.10
2010,06,23,01,50,15.10
2010,06,23,01,51,15.10
2010,06,23,01,52,15.10
2010,06,23,01,53,15.10
2010,06,23,01,54,15.10
2010,06,23,01,55,15.10
2010,06,23,01,56,15.10
2010,06,23,01,57,15.10
2010,06,23,01,58,15.10
2010,06,23,01,59,15.10
2010,06,23,02,00,15.00
2010,06,23,02,01,15.00
2010,06,23,02,02,15.10
2010,06,23,02,03,15.10
2010,06,23,02,04,15.10
2010,06,23,02,05,15.00
2010,06,23,02,06,15.00
2010,06,23,02,07,15.00
2010,06,23,02,08,15.00
2010,06,23,02,09,15.00
2010,06,23,02,10,15.00
2010,06,23,02,11,15.00
2010,06,23,02,12,15.00
2010,06,23,02,13,15.00
2010,06,23,02,14,15.00
2010,06,23,02,15,14.90
2010,06,23,02,16,14.90
2010,06,23,02,17,14.90
2010,06,23,02,18,14.90
2010,06,23,02,19,14.90
2010,06,23,02,20,14.90
2010,06,23,02,21,14.90
2010,06,23,02,22,14.90
2010,06,23,02,23,14.90
2010,06,23,02,24,14.90
2010,06,23,02,25,14.80
2010,06,23,02,26,14.80
2010,06,23,02,27,14.80
2010,06,23,02,28,14.80
2010,06,23,02,29,14.80
2010,06,23,02,30,14.80
2010,06,23,02,31,14.80
2010,06,23,02,32,14.80
2010,06,23,02,33,14.80
2010,06,23,02,34,14.80
2010,06,23,02,35,14.80
2010,06,23,02,36,14.80
2010,06,23,02,37,14.80
2010,06,23,02,38,14.80
2010,06,23,02,39,14.80
2010,06,23,02,40,14.80
2010,06,23,02,41,14.80
2010,06,23,02,42,14.80
2010,06,23,02,43,14.80
2010,06,23,02,44,14.70
2010,06,23,02,45,14.70
2010,06,23,02,46,14.70
2010,06,23,02,47,14.60
2010,06,23,02,48,14.60
2010,06,23,02,49,14.60
2010,06,23,02,50,14.60
2010,06,23,02,51,14.60
2010,06,23,02,52,14.60
2010,06,23,02,53,14.50
2010,06,23,02,54,14.50
2010,06,23,02,55,14.50
2010,06,23,02,56,14.50
2010,06,23,02,57,14.50
2010,06,23,02,58,14.50
2010,06,23,02,59,14.50
2010,06,23,03,00,14.50
2010,06,23,03,01,14.50
2010,06,23,03,02,14.50
2010,06,23,03,03,14.50
2010,06,23,03,04,14.50
2010,06,23,03,05,14.50
2010,06,23,03,06,14.50
2010,06,23,03,07,14.40
2010,06,23,03,08,14.40
2010,06,23,03,09,14.40
2010,06,23,03,10,14.40
2010,06,23,03,11,14.40
2010,06,23,03,12,14.40
2010,06,23,03,13,14.40
2010,06,23,03,14,14.40
2010,06,23,03,15,14.40
2010,06,23,03,16,14.40
2010,06,23,03,17,14.40
2010,06,23,03,18,14.40
2010,06,23,03,19,14.40
2010,06,23,03,20,14.40
2010,06,23,03,21,14.30
2010,06,23,03,22,14.30
2010,06,23,03,23,14.30
2010,06,23,03,24,14.30
2010,06,23,03,25,14.30
2010,06,23,03,26,14.30
2010,06,23,03,27,14.30
2010,06,23,03,28,14.30
2010,06,23,03,29,14.40
2010,06,23,03,30,14.40
2010,06,23,03,31,14.40
2010,06,23,03,32,14.40
2010,06,23,03,33,14.40
2010,06,23,03,34,14.40
2010,06,23,03,35,14.40
2010,06,23,03,36,14.40
2010,06,23,03,37,14.40
2010,06,23,03,38,14.40
2010,06,23,03,39,14.40
2010,06,23,03,40,14.40
2010,06,23,03,41,14.40
2010,06,23,03,42,14.40
2010,06,23,03,43,14.40
2010,06,23,03,44,14.40
2010,06,23,03,45,14.40
2010,06,23,03,46,14.40
2010,06,23,03,47,14.40
2010,06,23,03,48,14.40
2010,06,23,03,49,14.40
2010,06,23,03,50,14.40
2010,06,23,03,51,14.40
2010,06,23,03,52,14.40
2010,06,23,03,53,14.40
2010,06,23,03,54,14.40
2010,06,23,03,55,14.40
2010,06,23,03,56,14.40
2010,06,23,03,57,14.40
2010,06,23,03,58,14.40
2010,06,23,03,59,14.40
2010,06,23,04,00,14.50
2010,06,23,04,01,14.50
2010,06,23,04,02,14.50
2010,06,23,04,03,14.50
2010,06,23,04,04,14.50
2010,06,23,04,05,14.50
2010,06,23,04,06,14.50
2010,06,23,04,07,14.50
2010,06,23,04,08,14.50
2010,06,23,04,09,14.50
2010,06,23,04,10,14.40
2010,06,23,04,11,14.50
2010,06,23,04,12,14.50
2010,06,23,04,13,14.50
2010,06,23,04,14,14.50
2010,06,23,04,15,14.50
2010,06,23,04,16,14.50
2010,06,23,04,17,14.50
2010,06,23,04,18,14.50
2010,06,23,04,19,14.50
2010,06,23,04,20,14.50
2010,06,23,04,21,14.50
2010,06,23,04,22,14.50
2010,06,23,04,23,14.50
2010,06,23,04,24,14.50
2010,06,23,04,25,14.50
2010,06,23,04,26,14.50
2010,06,23,04,27,14.50
2010,06,23,04,28,14.50
2010,06,23,04,29,14.50
2010,06,23,04,30,14.50
2010,06,23,04,31,14.50
2010,06,23,04,32,14.50
2010,06,23,04,33,14.50
2010,06,23,04,34,14.50
2010,06,23,04,35,14.50
2010,06,23,04,36,14.50
2010,06,23,04,37,14.50
2010,06,23,04,38,14.50
2010,06,23,04,39,14.50
2010,06,23,04,40,14.50
2010,06,23,04,41,14.50
2010,06,23,04,42,14.50
2010,06,23,04,43,14.40
2010,06,23,04,44,14.40
2010,06,23,04,45,14.40
2010,06,23,04,46,14.40
2010,06,23,04,47,14.30
2010,06,23,04,48,14.30
2010,06,23,04,49,14.30
2010,06,23,04,50,14.20
2010,06,23,04,51,14.20
2010,06,23,04,52,14.20
2010,06,23,04,53,14.20
2010,06,23,04,54,14.20
2010,06,23,04,55,14.20
2010,06,23,04,56,14.20
2010,06,23,04,57,14.20
2010,06,23,04,58,14.10
2010,06,23,04,59,14.10
2010,06,23,05,00,14.10
2010,06,23,05,01,14.00
2010,06,23,05,02,14.00
2010,06,23,05,03,14.00
2010,06,23,05,04,14.00
2010,06,23,05,05,14.00
2010,06,23,05,06,14.00
2010,06,23,05,07,14.00
2010,06,23,05,08,14.00
2010,06,23,05,09,14.00
2010,06,23,05,10,14.00
2010,06,23,05,11,14.00
2010,06,23,05,12,14.00
2010,06,23,05,13,13.90
2010,06,23,05,14,13.90
2010,06,23,05,15,13.90
2010,06,23,05,16,13.90
2010,06,23,05,17,13.80
2010,06,23,05,18,13.80
2010,06,23,05,19,13.70
2010,06,23,05,20,13.70
2010,06,23,05,21,13.70
2010,06,23,05,22,13.60
2010,06,23,05,23,13.50
2010,06,23,05,24,13.50
2010,06,23,05,25,13.40
2010,06,23,05,26,13.40
2010,06,23,05,27,13.30
2010,06,23,05,28,13.30
2010,06,23,05,29,13.30
2010,06,23,05,30,13.20
2010,06,23,05,31,13.20
2010,06,23,05,32,13.10
2010,06,23,05,33,13.10
2010,06,23,05,34,13.00
2010,06,23,05,35,13.00
2010,06,23,05,36,13.00
2010,06,23,05,37,12.90
2010,06,23,05,38,12.90
2010,06,23,05,39,12.90
2010,06,23,05,40,12.90
2010,06,23,05,41,12.80
2010,06,23,05,42,12.80
2010,06,23,05,43,12.80
2010,06,23,05,44,12.80
2010,06,23,05,45,12.80
2010,06,23,05,46,12.80
2010,06,23,05,47,12.80
2010,06,23,05,48,12.80
2010,06,23,05,49,12.80
2010,06,23,05,50,12.80
2010,06,23,05,51,12.80
2010,06,23,05,52,12.80
2010,06,23,05,53,12.80
2010,06,23,05,54,12.80
2010,06,23,05,55,12.90
2010,06,23,05,56,12.90
2010,06,23,05,57,12.90
2010,06,23,05,58,12.90
2010,06,23,05,59,13.00
2010,06,23,06,00,13.00
2010,06,23,06,01,13.10
2010,06,23,06,02,13.10
2010,06,23,06,03,13.10
2010,06,23,06,04,13.10
2010,06,23,06,05,13.10
2010,06,23,06,06,13.20
2010,06,23,06,07,13.20
2010,06,23,06,08,13.20
2010,06,23,06,09,13.20
2010,06,23,06,10,13.20
2010,06,23,06,11,13.30
2010,06,23,06,12,13.30
2010,06,23,06,13,13.30
2010,06,23,06,14,13.30
2010,06,23,06,15,13.30
2010,06,23,06,16,13.40
2010,06,23,06,17,13.40
2010,06,23,06,18,13.50
2010,06,23,06,19,13.50
2010,06,23,06,20,13.60
2010,06,23,06,21,13.60
2010,06,23,06,22,13.60
2010,06,23,06,23,13.70
2010,06,23,06,24,13.70
2010,06,23,06,25,13.70
2010,06,23,06,26,13.70
2010,06,23,06,27,13.70
2010,06,23,06,28,13.70
2010,06,23,06,29,13.70
2010,06,23,06,30,13.80
2010,06,23,06,31,13.80
2010,06,23,06,32,13.80
2010,06,23,06,33,13.90
2010,06,23,06,34,13.90
2010,06,23,06,35,13.90
2010,06,23,06,36,13.90
2010,06,23,06,37,13.90
2010,06,23,06,38,14.00
2010,06,23,06,39,14.00
2010,06,23,06,40,14.00
2010,06,23,06,41,14.00
2010,06,23,06,42,14.10
2010,06,23,06,43,14.10
2010,06,23,06,44,14.10
2010,06,23,06,45,14.20
2010,06,23,06,46,14.20
2010,06,23,06,47,14.20
2010,06,23,06,48,14.20
2010,06,23,06,49,14.20
2010,06,23,06,50,14.20
2010,06,23,06,51,14.20
2010,06,23,06,52,14.20
2010,06,23,06,53,14.20
2010,06,23,06,54,14.30
2010,06,23,06,55,14.30
2010,06,23,06,56,14.40
2010,06,23,06,57,14.40
2010,06,23,06,58,14.50
2010,06,23,06,59,14.50
2010,06,23,07,00,14.60
2010,06,23,07,01,14.70
2010,06,23,07,02,14.80
2010,06,23,07,03,14.90
2010,06,23,07,04,15.00
2010,06,23,07,05,15.10
2010,06,23,07,06,15.20
2010,06,23,07,07,15.30
2010,06,23,07,08,15.30
2010,06,23,07,09,15.40
2010,06,23,07,10,15.50
2010,06,23,07,11,15.50
2010,06,23,07,12,15.60
2010,06,23,07,13,15.60
2010,06,23,07,14,15.60
2010,06,23,07,15,15.70
2010,06,23,07,16,15.80
2010,06,23,07,17,15.80
2010,06,23,07,18,15.80
2010,06,23,07,19,15.90
2010,06,23,07,20,15.90
2010,06,23,07,21,16.00
2010,06,23,07,22,16.10
2010,06,23,07,23,16.10
2010,06,23,07,24,16.10
2010,06,23,07,25,16.10
2010,06,23,07,26,16.20
2010,06,23,07,27,16.20
2010,06,23,07,28,16.20
2010,06,23,07,29,16.20
2010,06,23,07,30,16.20
2010,06,23,07,31,16.30
2010,06,23,07,32,16.30
2010,06,23,07,33,16.30
2010,06,23,07,34,16.30
2010,06,23,07,35,16.30
2010,06,23,07,36,16.30
2010,06,23,07,37,16.30
2010,06,23,07,38,16.30
2010,06,23,07,39,16.30
2010,06,23,07,40,16.30
2010,06,23,07,41,16.30
2010,06,23,07,42,16.30
2010,06,23,07,43,16.30
2010,06,23,07,44,16.30
2010,06,23,07,45,16.40
2010,06,23,07,46,16.40
2010,06,23,07,47,16.40
2010,06,23,07,48,16.60
2010,06,23,07,49,16.60
2010,06,23,07,50,16.70
2010,06,23,07,51,16.70
2010,06,23,07,52,16.70
2010,06,23,07,53,16.80
2010,06,23,07,54,16.90
2010,06,23,07,55,16.90
2010,06,23,07,56,17.00
2010,06,23,07,57,17.00
2010,06,23,07,58,17.10
2010,06,23,07,59,17.10
2010,06,23,08,00,17.20
2010,06,23,08,01,17.20
2010,06,23,08,02,17.30
2010,06,23,08,03,17.30
2010,06,23,08,04,17.40
2010,06,23,08,05,17.40
2010,06,23,08,06,17.50
2010,06,23,08,07,17.50
2010,06,23,08,08,17.60
2010,06,23,08,09,17.60
2010,06,23,08,10,17.70
2010,06,23,08,11,17.80
2010,06,23,08,12,17.90
2010,06,23,08,13,18.00
2010,06,23,08,14,18.10
2010,06,23,08,15,18.20
2010,06,23,08,16,18.20
2010,06,23,08,17,18.20
2010,06,23,08,18,18.30
2010,06,23,08,19,18.30
2010,06,23,08,20,18.30
2010,06,23,08,21,18.30
2010,06,23,08,22,18.30
2010,06,23,08,23,18.20
2010,06,23,08,24,18.20
2010,06,23,08,25,18.10
2010,06,23,08,26,18.00
2010,06,23,08,27,17.70
2010,06,23,08,28,17.40
2010,06,23,08,29,17.00
2010,06,23,08,30,16.80
2010,06,23,08,31,16.60
2010,06,23,08,32,16.50
2010,06,23,08,33,16.30
2010,06,23,08,34,16.10
2010,06,23,08,35,16.10
2010,06,23,08,36,16.10
2010,06,23,08,37,16.10
2010,06,23,08,38,16.10
2010,06,23,08,39,16.10
2010,06,23,08,40,16.10
2010,06,23,08,41,16.20
2010,06,23,08,42,16.20
2010,06,23,08,43,16.20
2010,06,23,08,44,16.20
2010,06,23,08,45,16.10
2010,06,23,08,46,16.10
2010,06,23,08,47,16.10
2010,06,23,08,48,16.10
2010,06,23,08,49,16.10
2010,06,23,08,50,16.10
2010,06,23,08,51,16.10
2010,06,23,08,52,16.10
2010,06,23,08,53,16.10
2010,06,23,08,54,16.10
2010,06,23,08,55,16.10
2010,06,23,08,56,16.20
2010,06,23,08,57,16.30
2010,06,23,08,58,16.30
2010,06,23,08,59,16.40
2010,06,23,09,00,16.40
2010,06,23,09,01,16.40
2010,06,23,09,02,16.50
2010,06,23,09,03,16.60
2010,06,23,09,04,16.60
2010,06,23,09,05,16.70
2010,06,23,09,06,16.70
2010,06,23,09,07,16.70
2010,06,23,09,08,16.70
2010,06,23,09,09,16.70
2010,06,23,09,10,16.70
2010,06,23,09,11,16.70
2010,06,23,09,12,16.80
2010,06,23,09,13,16.80
2010,06,23,09,14,16.80
2010,06,23,09,15,16.80
2010,06,23,09,16,16.80
2010,06,23,09,17,16.80
2010,06,23,09,18,16.80
2010,06,23,09,19,16.80
2010,06,23,09,20,16.90
2010,06,23,09,21,16.90
2010,06,23,09,22,17.10
2010,06,23,09,23,17.20
2010,06,23,09,24,17.30
2010,06,23,09,25,17.40
2010,06,23,09,26,17.50
2010,06,23,09,27,17.50
2010,06,23,09,28,17.70
2010,06,23,09,29,17.80
2010,06,23,09,30,17.90
2010,06,23,09,31,17.90
2010,06,23,09,32,18.00
2010,06,23,09,33,18.10
2010,06,23,09,34,18.20
2010,06,23,09,35,18.20
2010,06,23,09,36,18.20
2010,06,23,09,37,18.40
2010,06,23,09,38,18.50
2010,06,23,09,39,18.60
2010,06,23,09,40,18.70
2010,06,23,09,41,18.90
2010,06,23,09,42,19.00
2010,06,23,09,43,19.10
2010,06,23,09,44,19.10
2010,06,23,09,45,19.20
2010,06,23,09,46,19.30
2010,06,23,09,47,19.40
2010,06,23,09,48,19.50
2010,06,23,09,49,19.50
2010,06,23,09,50,19.50
2010,06,23,09,51,19.50
2010,06,23,09,52,19.50
2010,06,23,09,53,19.60
2010,06,23,09,54,19.70
2010,06,23,09,55,19.80
2010,06,23,09,56,19.90
2010,06,23,09,57,20.00
2010,06,23,09,58,20.10
2010,06,23,09,59,20.20
2010,06,23,10,00,20.20
2010,06,23,10,01,20.30
2010,06,23,10,02,20.40
2010,06,23,10,03,20.40
2010,06,23,10,04,20.40
2010,06,23,10,05,20.40
2010,06,23,10,06,20.40
2010,06,23,10,07,20.40
2010,06,23,10,08,20.40
2010,06,23,10,09,20.40
2010,06,23,10,10,20.30
2010,06,23,10,11,20.30
2010,06,23,10,12,20.30
2010,06,23,10,13,20.30
2010,06,23,10,14,20.30
2010,06,23,10,15,20.40
2010,06,23,10,16,20.40
2010,06,23,10,17,20.50
2010,06,23,10,18,20.50
2010,06,23,10,19,20.60
2010,06,23,10,20,20.60
2010,06,23,10,21,20.60
2010,06,23,10,22,20.70
2010,06,23,10,23,20.80
2010,06,23,10,24,20.90
2010,06,23,10,25,20.90
2010,06,23,10,26,20.90
2010,06,23,10,27,20.80
2010,06,23,10,28,20.70
2010,06,23,10,29,20.60
2010,06,23,10,30,20.40
2010,06,23,10,31,20.20
2010,06,23,10,32,19.90
2010,06,23,10,33,19.50
2010,06,23,10,34,19.20
2010,06,23,10,35,19.00
2010,06,23,10,36,18.90
2010,06,23,10,37,18.90
2010,06,23,10,38,18.90
2010,06,23,10,39,18.90
2010,06,23,10,40,19.00
2010,06,23,10,41,19.10
2010,06,23,10,42,19.20
2010,06,23,10,43,19.10
2010,06,23,10,44,19.10
2010,06,23,10,45,19.00
2010,06,23,10,46,18.90
2010,06,23,10,47,18.90
2010,06,23,10,48,18.90
2010,06,23,10,49,18.90
2010,06,23,10,50,18.90
2010,06,23,10,51,18.80
2010,06,23,10,52,18.60
2010,06,23,10,53,18.50
2010,06,23,10,54,18.40
2010,06,23,10,55,18.40
2010,06,23,10,56,18.50
2010,06,23,10,57,18.60
2010,06,23,10,58,18.70
2010,06,23,10,59,18.80
2010,06,23,11,00,18.80
2010,06,23,11,01,18.80
2010,06,23,11,02,18.80
2010,06,23,11,03,18.80
2010,06,23,11,04,18.90
2010,06,23,11,05,19.10
2010,06,23,11,06,19.20
2010,06,23,11,07,19.30
2010,06,23,11,08,19.40
2010,06,23,11,09,19.60
2010,06,23,11,10,19.70
2010,06,23,11,11,19.80
2010,06,23,11,12,19.90
2010,06,23,11,13,19.90
2010,06,23,11,14,20.10
2010,06,23,11,15,20.20
2010,06,23,11,16,20.20
2010,06,23,11,17,20.20
2010,06,23,11,18,20.30
2010,06,23,11,19,20.30
2010,06,23,11,20,20.40
2010,06,23,11,21,20.60
2010,06,23,11,22,20.60
2010,06,23,11,23,20.70
2010,06,23,11,24,20.70
2010,06,23,11,25,20.80
2010,06,23,11,26,20.90
2010,06,23,11,27,21.00
2010,06,23,11,28,21.10
2010,06,23,11,29,21.10
2010,06,23,11,30,21.20
2010,06,23,11,31,21.20
2010,06,23,11,32,21.20
2010,06,23,11,33,21.10
2010,06,23,11,34,21.00
2010,06,23,11,35,20.90
2010,06,23,11,36,20.70
2010,06,23,11,37,20.50
2010,06,23,11,38,20.40
2010,06,23,11,39,20.30
2010,06,23,11,40,20.20
2010,06,23,11,41,20.10
2010,06,23,11,42,20.00
2010,06,23,11,43,19.90
2010,06,23,11,44,19.90
2010,06,23,11,45,19.80
2010,06,23,11,46,19.80
2010,06,23,11,47,19.70
2010,06,23,11,48,19.70
2010,06,23,11,49,19.60
2010,06,23,11,50,19.50
2010,06,23,11,51,19.40
2010,06,23,11,52,19.30
2010,06,23,11,53,19.30
2010,06,23,11,54,19.20
2010,06,23,11,55,19.20
2010,06,23,11,56,19.20
2010,06,23,11,57,19.20
2010,06,23,11,58,19.30
2010,06,23,11,59,19.30
2010,06,23,12,00,19.30
2010,06,23,12,01,19.20
2010,06,23,12,02,19.10
2010,06,23,12,03,19.10
2010,06,23,12,04,19.10
2010,06,23,12,05,19.10
2010,06,23,12,06,19.10
2010,06,23,12,07,19.10
2010,06,23,12,08,19.10
2010,06,23,12,09,19.10
2010,06,23,12,10,19.10
2010,06,23,12,11,19.20
2010,06,23,12,12,19.20
2010,06,23,12,13,19.30
2010,06,23,12,14,19.20
2010,06,23,12,15,19.20
2010,06,23,12,16,19.30
2010,06,23,12,17,19.40
2010,06,23,12,18,19.30
2010,06,23,12,19,19.30
2010,06,23,12,20,19.30
2010,06,23,12,21,19.40
2010,06,23,12,22,19.50
2010,06,23,12,23,19.40
2010,06,23,12,24,19.30
2010,06,23,12,25,19.30
2010,06,23,12,26,19.40
2010,06,23,12,27,19.20
2010,06,23,12,28,19.10
2010,06,23,12,29,18.90
2010,06,23,12,30,18.90
2010,06,23,12,31,18.80
2010,06,23,12,32,18.80
2010,06,23,12,33,18.80
2010,06,23,12,34,18.90
2010,06,23,12,35,18.90
2010,06,23,12,36,19.00
2010,06,23,12,37,19.10
2010,06,23,12,38,19.00
2010,06,23,12,39,18.90
2010,06,23,12,40,18.90
2010,06,23,12,41,19.10
2010,06,23,12,42,19.10
2010,06,23,12,43,19.20
2010,06,23,12,44,19.30
2010,06,23,12,45,19.30
2010,06,23,12,46,19.10
2010,06,23,12,47,19.20
2010,06,23,12,48,19.30
2010,06,23,12,49,19.20
2010,06,23,12,50,19.20
2010,06,23,12,51,19.20
2010,06,23,12,52,19.10
2010,06,23,12,53,19.10
2010,06,23,12,54,19.10
2010,06,23,12,55,19.10
2010,06,23,12,56,19.10
2010,06,23,12,57,19.10
2010,06,23,12,58,19.10
2010,06,23,12,59,19.20
2010,06,23,13,00,19.30
2010,06,23,13,01,19.40
2010,06,23,13,02,19.50
2010,06,23,13,03,19.60
2010,06,23,13,04,19.70
2010,06,23,13,05,19.80
2010,06,23,13,06,20.00
2010,06,23,13,07,20.10
2010,06,23,13,08,20.10
2010,06,23,13,09,20.20
2010,06,23,13,10,20.20
2010,06,23,13,11,20.20
2010,06,23,13,12,20.20
2010,06,23,13,13,20.20
2010,06,23,13,14,20.20
2010,06,23,13,15,20.20
2010,06,23,13,16,20.10
2010,06,23,13,17,20.10
2010,06,23,13,18,19.90
2010,06,23,13,19,19.90
2010,06,23,13,20,20.00
2010,06,23,13,21,20.10
2010,06,23,13,22,20.20
2010,06,23,13,23,20.40
2010,06,23,13,24,20.50
2010,06,23,13,25,20.50
2010,06,23,13,26,20.50
2010,06,23,13,27,20.60
2010,06,23,13,28,20.80
2010,06,23,13,29,20.70
2010,06,23,13,30,20.60
2010,06,23,13,31,20.60
2010,06,23,13,32,20.60
2010,06,23,13,33,20.50
2010,06,23,13,34,20.60
2010,06,23,13,35,20.60
2010,06,23,13,36,20.70
2010,06,23,13,37,20.70
2010,06,23,13,38,20.80
2010,06,23,13,39,20.80
2010,06,23,13,40,20.90
2010,06,23,13,41,20.90
2010,06,23,13,42,21.00
2010,06,23,13,43,21.10
2010,06,23,13,44,21.30
2010,06,23,13,45,21.10
2010,06,23,13,46,21.00
2010,06,23,13,47,21.00
2010,06,23,13,48,20.90
2010,06,23,13,49,20.90
2010,06,23,13,50,20.90
2010,06,23,13,51,20.90
2010,06,23,13,52,21.00
2010,06,23,13,53,21.00
2010,06,23,13,54,20.90
2010,06,23,13,55,20.80
2010,06,23,13,56,20.70
2010,06,23,13,57,20.70
2010,06,23,13,58,20.70
2010,06,23,13,59,20.70
2010,06,23,14,00,20.70
2010,06,23,14,01,20.70
2010,06,23,14,02,20.70
2010,06,23,14,03,20.80
2010,06,23,14,04,20.90
2010,06,23,14,05,20.90
2010,06,23,14,06,20.90
2010,06,23,14,07,21.00
2010,06,23,14,08,21.10
2010,06,23,14,09,21.10
2010,06,23,14,10,21.20
2010,06,23,14,11,21.30
2010,06,23,14,12,21.30
2010,06,23,14,13,21.30
2010,06,23,14,14,21.40
2010,06,23,14,15,21.50
2010,06,23,14,16,21.50
2010,06,23,14,17,21.40
2010,06,23,14,18,21.30
2010,06,23,14,19,21.30
2010,06,23,14,20,21.30
2010,06,23,14,21,21.30
2010,06,23,14,22,21.20
2010,06,23,14,23,21.10
2010,06,23,14,24,21.00
2010,06,23,14,25,20.80
2010,06,23,14,26,20.70
2010,06,23,14,27,20.70
2010,06,23,14,28,20.70
2010,06,23,14,29,20.70
2010,06,23,14,30,20.50
2010,06,23,14,31,20.40
2010,06,23,14,32,20.20
2010,06,23,14,33,20.10
2010,06,23,14,34,19.90
2010,06,23,14,35,19.90
2010,06,23,14,36,20.00
2010,06,23,14,37,20.00
2010,06,23,14,38,19.90
2010,06,23,14,39,19.90
2010,06,23,14,40,19.90
2010,06,23,14,41,19.90
2010,06,23,14,42,19.90
2010,06,23,14,43,20.00
2010,06,23,14,44,20.10
2010,06,23,14,45,20.20
2010,06,23,14,46,20.20
2010,06,23,14,47,20.20
2010,06,23,14,48,20.30
2010,06,23,14,49,20.40
2010,06,23,14,50,20.40
2010,06,23,14,51,20.30
2010,06,23,14,52,20.20
2010,06,23,14,53,20.10
2010,06,23,14,54,20.00
2010,06,23,14,55,19.90
2010,06,23,14,56,19.90
2010,06,23,14,57,19.90
2010,06,23,14,58,19.90
2010,06,23,14,59,19.90
2010,06,23,15,00,19.80
2010,06,23,15,01,19.60
2010,06,23,15,02,19.40
2010,06,23,15,03,19.30
2010,06,23,15,04,19.20
2010,06,23,15,05,19.10
2010,06,23,15,06,19.10
2010,06,23,15,07,19.10
2010,06,23,15,08,19.10
2010,06,23,15,09,19.10
2010,06,23,15,10,19.10
2010,06,23,15,11,19.00
2010,06,23,15,12,18.90
2010,06,23,15,13,18.90
2010,06,23,15,14,18.90
2010,06,23,15,15,18.90
2010,06,23,15,16,18.90
2010,06,23,15,17,18.80
2010,06,23,15,18,18.70
2010,06,23,15,19,18.70
2010,06,23,15,20,18.70
2010,06,23,15,21,18.80
2010,06,23,15,22,19.00
2010,06,23,15,23,19.10
2010,06,23,15,24,19.20
2010,06,23,15,25,19.20
2010,06,23,15,26,19.40
2010,06,23,15,27,19.50
2010,06,23,15,28,19.40
2010,06,23,15,29,19.40
2010,06,23,15,30,19.40
2010,06,23,15,31,19.30
2010,06,23,15,32,19.40
2010,06,23,15,33,19.50
2010,06,23,15,34,19.60
2010,06,23,15,35,19.70
2010,06,23,15,36,19.90
2010,06,23,15,37,20.00
2010,06,23,15,38,20.10
2010,06,23,15,39,20.20
2010,06,23,15,40,20.20
2010,06,23,15,41,20.30
2010,06,23,15,42,20.40
2010,06,23,15,43,20.40
2010,06,23,15,44,20.40
2010,06,23,15,45,20.40
2010,06,23,15,46,20.40
2010,06,23,15,47,20.40
2010,06,23,15,48,20.50
2010,06,23,15,49,20.50
2010,06,23,15,50,20.50
2010,06,23,15,51,20.40
2010,06,23,15,52,20.30
2010,06,23,15,53,20.20
2010,06,23,15,54,20.20
2010,06,23,15,55,20.20
2010,06,23,15,56,20.10
2010,06,23,15,57,19.90
2010,06,23,15,58,19.70
2010,06,23,15,59,19.40
2010,06,23,16,00,19.20
2010,06,23,16,01,19.00
2010,06,23,16,02,18.90
2010,06,23,16,03,18.80
2010,06,23,16,04,18.70
2010,06,23,16,05,18.60
2010,06,23,16,06,18.50
2010,06,23,16,07,18.50
2010,06,23,16,08,18.50
2010,06,23,16,09,18.50
2010,06,23,16,10,18.50
2010,06,23,16,11,18.50
2010,06,23,16,12,18.50
2010,06,23,16,13,18.50
2010,06,23,16,14,18.50
2010,06,23,16,15,18.60
2010,06,23,16,16,18.60
2010,06,23,16,17,18.60
2010,06,23,16,18,18.60
2010,06,23,16,19,18.60
2010,06,23,16,20,18.70
2010,06,23,16,21,18.70
2010,06,23,16,22,18.60
2010,06,23,16,23,18.60
2010,06,23,16,24,18.60
2010,06,23,16,25,18.50
2010,06,23,16,26,18.50
2010,06,23,16,27,18.50
2010,06,23,16,28,18.50
2010,06,23,16,29,18.50
2010,06,23,16,30,18.50
2010,06,23,16,31,18.40
2010,06,23,16,32,18.30
2010,06,23,16,33,18.30
2010,06,23,16,34,18.30
2010,06,23,16,35,18.40
2010,06,23,16,36,18.40
2010,06,23,16,37,18.50
2010,06,23,16,38,18.60
2010,06,23,16,39,18.70
2010,06,23,16,40,18.80
2010,06,23,16,41,18.90
2010,06,23,16,42,19.00
2010,06,23,16,43,19.10
2010,06,23,16,44,19.10
2010,06,23,16,45,19.10
2010,06,23,16,46,19.10
2010,06,23,16,47,19.20
2010,06,23,16,48,19.20
2010,06,23,16,49,19.20
2010,06,23,16,50,19.20
2010,06,23,16,51,19.30
2010,06,23,16,52,19.50
2010,06,23,16,53,19.60
2010,06,23,16,54,19.60
2010,06,23,16,55,19.50
2010,06,23,16,56,19.40
2010,06,23,16,57,19.30
2010,06,23,16,58,19.20
2010,06,23,16,59,19.10
2010,06,23,17,00,19.10
2010,06,23,17,01,19.00
2010,06,23,17,02,18.90
2010,06,23,17,03,18.80
2010,06,23,17,04,18.70
2010,06,23,17,05,18.70
2010,06,23,17,06,18.60
2010,06,23,17,07,18.50
2010,06,23,17,08,18.40
2010,06,23,17,09,18.30
2010,06,23,17,10,18.30
2010,06,23,17,11,18.20
2010,06,23,17,12,18.10
2010,06,23,17,13,18.10
2010,06,23,17,14,18.10
2010,06,23,17,15,18.00
2010,06,23,17,16,17.90
2010,06,23,17,17,17.90
2010,06,23,17,18,18.10
2010,06,23,17,19,18.10